Tracking 18816 objects as of 18-October-2017
HD Live streaming from Space Station
objects crossing your sky now

BREEZE-M DEB

Track BREEZE-M DEB now!
10-day predictions


NORAD ID: 34250
Int'l Code: 2006-006BR
Perigee: 516.9 km
Apogee: 14,718.0 km
Inclination: 51.7 °
Period: 274.4 minutes
Semi major axis: 13988 km
RCS: 0.0694 m2 (small)
Launch date: February 28, 2006
Source: Commonwealth of Independent States (former USSR) (CIS)
Launch site: TYURATAM MISSILE AND SPACE COMPLEX (TTMTR)

Note: This is SATELLITE DEBRIS
aabbcc
Your satellite tracking list
Your tracking list is empty





NASA's NSSDC Master Catalog

Two Line Element Set (TLE):
1 34250U 06006BR  17289.47705295 -.00000062  00000-0  20043-4 0  9994
2 34250  51.7126 313.2963 5076015 100.1447 318.4863  5.24746549188484
Source of the keplerian elements: AFSPC